Regional Weather Roundup
Issued by NWS Bismarck, ND

Home | Current Version | Previous Version | Text Only | Print | Product List | Glossary On
Versions: 1 2 3 4 5 6 7 8 9 10 11 12 13 14 15 16 17 18 19 20 21 22 23 24 25 26 27 28 29 30 31 32 33 34 35 36 37 38 39 40 41 42 43 44 45 46 47 48 49 50
000
ASUS43 KBIS 221759
RWRBIS

NWR BROADCAST TEXT
NATIONAL WEATHER SERVICE BISMARCK ND
100 PM CDT FRI AUG 22 2014

NOTE: "FAIR" INDICATES FEW OR NO CLOUDS BELOW 12,000 FEET WITH NO
SIGNIFICANT WEATHER AND/OR OBSTRUCTIONS TO VISIBILITY.


CITY           SKY/WX    TMP DP  RH WIND       PRES   REMARKS
WILLISTON      CLOUDY    68  53  58 NE10      30.10S
MINOT          CLOUDY    64  58  80 N10       30.09S
MINOT AFB      CLOUDY    63  63 100 NE12      30.08F
BISMARCK       CLOUDY    75  63  66 CALM      30.04S
DICKINSON      LGT RAIN  64  61  88 NE13      30.06S FOG
GARRISON         N/A     66  61  84 NE9       30.07S
HETTINGER ARPT CLOUDY    67  59  75 NE5       30.09S
JAMESTOWN      CLOUDY    72  66  83 N8        30.04S
BEACH            N/A     64  64 100 E9        30.10R
CARRINGTON     CLOUDY    66  66 100 N8        30.06S
CROSBY         CLOUDY    63  57  82 NE10      30.13F
HARVEY         CLOUDY    68  64  88 NE10      30.07
HAZEN          CLOUDY    64  63  94 NE7       30.08S
LINTON         FAIR      68  68 100 S3        30.06R
MANDAN         CLOUDY    73  64  73 E5        30.06S
RUGBY          CLOUDY    64  59  82 NE9       30.08S
TIOGA          CLOUDY    64  61  88 E13       30.14S
WATFORD CITY   CLOUDY    63  57  82 NE9       30.09R
$$

CITY           SKY/WX    TMP DP  RH WIND       PRES   REMARKS
GRAND FORKS    CLOUDY    68  64  87 NW13      30.02R
GRAND FORKS AF NOT AVBL
DEVILS LAKE    CLOUDY    66  57  72 N10       30.05R
FARGO          CLOUDY    72  67  84 N8        30.00R
CAVALIER       CLOUDY    68  63  83 N13       30.03F
GRAFTON        CLOUDY    66  63  88 N12       30.02S
GWINNER        CLOUDY    73  72  94 NW7       30.02F
LANGDON        CLOUDY    66  59  77 N12       30.06F
WALHALLA         N/A     68  64  88 N17G24    30.05S
$$

CITY           SKY/WX    TMP DP  RH WIND       PRES   REMARKS
ABERDEEN       CLOUDY    73  67  81 N8        30.01R
MOBRIDGE       LGT RAIN  70  67  90 N10       30.03S
RAPID CITY     CLOUDY    71  62  73 VRB5      30.07F
GLASGOW        LGT RAIN  61  58  90 E14       30.11S FOG
SIDNEY         CLOUDY    66  57  72 NE14      30.10S
WOLF POINT     LGT RAIN  62  57  83 NE13      30.11F
GLENDIVE       CLOUDY    64  61  88 NE13      30.10R
MILES CITY     CLOUDY    68  55  63 NE5       30.06F
BAKER          PTSUNNY   67  59  75 NE9       30.08F
$$

CITY           SKY/WX    TMP DP  RH WIND       PRES   REMARKS
BILLINGS       LGT RAIN  57  56  96 NE8       30.09F FOG
GREAT FALLS    LGT RAIN  53  52  96 N7        30.13S
$$




USA.gov is the U.S. government's official web portal to all federal, state and local government web resources and services.